map of TMS home
Great Circle Mapper logo
TMS - Airport
Location
City:  São Tomé, São Tomé, São Tomé and Príncipe
Name:São Tomé International Airport
Old (Alt.):Salazar Airport
ICAO / IATA:FPST / TMS

Details
Type:Airport (Aerodrome, Airfield)
Use:Public/Civil, International (customs port of entry)
Latitude:0°22'41"N (0.378175)
Longitude:6°42'44"E (6.712153)
Datum:WGS 1984
Elevation:33 ft (10 m)
Variation:3.01°W (WMM2015 magnetic declination)
0.13° annual change
Runways:1
Longest:7283 × 148 ft (2220 × 45 m), paved

Time
Time Zone:UTC+0
Local Time:

Weather
METAR:FPST 112000Z 06003KT 9999 FEW017CB BKN040 31/27 Q1009 NOSIG
TAF:FPST 111600Z 1118/1224 11012KT 9999 FEW020CB SCT040
BECMG 1202/1204 FEW017CB BKN030 PROB30
TEMPO 1214/1217 TS

Related Locations
Nearby:
Farthest:CIS: 12238 mi / 19696 km
Canton Island, KI

Find:

   beyond  
but within

Other Information
Maps:
NOTAMs:
Links:
Sources:

  
flag of São Tomé and Príncipe   

Sectional Chart

Flight Planning
at skyvector.com

Satellite Image

Google Maps Satellite view

 

Copyright © 2004-2016 Karl L. Swartz. All rights reserved.
The Great Circle Mapper name and logo are trademarks of the Great Circle Mapper.
All other trademarks mentioned herein belong to their respective owners.
Please see credits for attibutions and further copyright information.

  Follow gcmap on Facebook Follow gcmap on Twitter Follow gcmap on Google+ GCmap on LinkedIn

hCard Microformat

Geo Microformat